Kingsport, TN

11:13 PM EDT on August 26, 2016 (GMT -0400)
Tri-Cities Regional Tennessee / Virginia

Weather History for KTRI - November, 2013

Change the Weather History Date:

Sunday, November 24, 2013

  Actual Average Record
Temperature  
Mean Temperature 26 °F 44 °F  
Max Temperature 33 °F 55 °F 74 °F (1973)
Min Temperature 19 °F 32 °F 9 °F (1950)
Degree Days  
Heating Degree Days 39 21  
Month to date heating degree days 459 416  
Since 1 July heating degree days 700 751  
Cooling Degree Days 0 0  
Month to date cooling degree days 0 0  
Year to date cooling degree days 1003 980  
Moisture  
Dew Point 5 °F    
Average Humidity 39    
Maximum Humidity 56    
Minimum Humidity 22    
Precipitation  
Precipitation 0.00 in 0.11 in 1.23 in (2004)
Month to date precipitation 1.44 2.41  
Year to date precipitation 48.84 36.95  
Snow  
Snow 0.00 in 0.00 in - ()
Month to date snowfall 0.0 0.1  
Since 1 July snowfall T 0.2  
Since 1 September snowfall T 0.2  
Snow Depth 0.00 in    
Sea Level Pressure  
Sea Level Pressure 30.48 in    
Wind  
Wind Speed 7 mph (North)    
Max Wind Speed 17 mph    
Max Gust Speed 22 mph    
Visibility 10 miles    
Events      
T = Trace of Precipitation, MM = Missing Value Source: NWS Daily Summary

Daily Weather History Graph

Daily Weather History Graph

Search for Another Location

Airport or City:

Trip Planner

Search our weather history database for the weather conditions in past years. The results will help you decide how hot, cold, wet, or windy it might be!

Date:

Astronomy

Nov. 24, 2013 Rise Set
Actual Time 7:16 AM EST 5:16 PM EST
Civil Twilight 6:48 AM EST 5:44 PM EST
Nautical Twilight 6:16 AM EST 6:15 PM EST
Astronomical Twilight 5:45 AM EST 6:46 PM EST
Moon 11:35 PM EST (11/24) 12:08 PM EST (11/24)
Length of Visible Light 10h 55m
Length of Day
9h 59m
Waning Gibbous, 61% of the Moon is Illuminated
Nov 24
Waning Gibbous
Nov 25
Last Quarter
Dec 2
New
Dec 9
First Quarter
Dec 17
Full

Hourly Weather History & Observations

Time (EST) Temp. Windchill Dew Point Humidity Pressure Visibility Wind Dir Wind Speed Gust Speed Precip Events Conditions
12:53 AM 28.9 °F 18.2 °F 10.9 °F 47% 30.34 in 10.0 mi North 13.8 mph 21.9 mph N/A   Overcast
1:53 AM 27.0 °F 16.7 °F 10.9 °F 51% 30.36 in 10.0 mi NW 11.5 mph - N/A   Partly Cloudy
2:53 AM 26.1 °F 16.8 °F 10.0 °F 51% 30.38 in 10.0 mi NNW 9.2 mph - N/A   Scattered Clouds
3:53 AM 24.1 °F 15.2 °F 8.1 °F 51% 30.40 in 10.0 mi NNW 8.1 mph - N/A   Partly Cloudy
4:53 AM 24.1 °F - 7.0 °F 48% 30.42 in 10.0 mi North - - N/A   Mostly Cloudy
5:53 AM 23.0 °F 14.7 °F 8.1 °F 53% 30.44 in 10.0 mi WNW 6.9 mph - N/A   Mostly Cloudy
6:53 AM 21.9 °F 10.4 °F 7.0 °F 53% 30.48 in 10.0 mi NW 11.5 mph - N/A   Scattered Clouds
7:53 AM 21.9 °F 10.4 °F 6.1 °F 51% 30.52 in 10.0 mi NNW 11.5 mph - N/A   Partly Cloudy
8:53 AM 23.0 °F 11.7 °F 6.1 °F 48% 30.54 in 10.0 mi North 11.5 mph - N/A   Partly Cloudy
9:53 AM 25.0 °F 16.3 °F 5.0 °F 43% 30.56 in 10.0 mi North 8.1 mph - N/A   Partly Cloudy
10:53 AM 28.0 °F 17.5 °F 3.9 °F 36% 30.56 in 10.0 mi NNW 12.7 mph - N/A   Partly Cloudy
11:53 AM 28.9 °F 21.1 °F 3.9 °F 35% 30.53 in 10.0 mi NNW 8.1 mph - N/A   Partly Cloudy
12:53 PM 30.0 °F 22.4 °F 1.9 °F 30% 30.51 in 10.0 mi NNW 8.1 mph - N/A   Partly Cloudy
1:53 PM 32.0 °F 25.6 °F -2.0 °F 23% 30.48 in 10.0 mi NW 6.9 mph - N/A   Partly Cloudy
2:53 PM 33.1 °F - -2.0 °F 22% 30.47 in 10.0 mi Calm Calm - N/A   Partly Cloudy
3:53 PM 30.9 °F 24.3 °F -2.0 °F 24% 30.47 in 10.0 mi NNE 6.9 mph - N/A   Scattered Clouds
4:53 PM 28.9 °F 21.9 °F -0.0 °F 29% 30.48 in 10.0 mi NNE 6.9 mph - N/A   Mostly Cloudy
5:53 PM 27.0 °F 21.6 °F -0.0 °F 31% 30.49 in 10.0 mi North 4.6 mph - N/A   Partly Cloudy
6:53 PM 25.0 °F 20.7 °F 5.0 °F 43% 30.50 in 10.0 mi NNE 3.5 mph - N/A   Partly Cloudy
7:53 PM 21.9 °F 17.2 °F 6.1 °F 51% 30.51 in 10.0 mi NE 3.5 mph - N/A   Partly Cloudy
8:53 PM 25.0 °F - 1.9 °F 37% 30.52 in 10.0 mi Calm Calm - N/A   Scattered Clouds
9:53 PM 21.9 °F - 6.1 °F 51% 30.52 in 10.0 mi Calm Calm - N/A   Clear
10:53 PM 19.9 °F 14.9 °F 6.1 °F 55% 30.50 in 10.0 mi NNE 3.5 mph - N/A   Clear
11:53 PM 19.9 °F 14.9 °F 7.0 °F 57% 30.49 in 10.0 mi NE 3.5 mph - N/A   Clear